User: anonymous   Login
Location: Guayaquil
(2.1667°S, 79.9000°W)
Time: 22:04:29
(UTC-05:00)
Language:

DNEPR OBJECT AB - Orbit

View from above orbital plane
View from above orbital plane
View from above satellite
View from above satellite

Ground track
Ground track

The orbit data is extracted from the following two-line orbital elements,

1 39441U 13066AB  18196.45128889 +.00000107 +00000-0 +22095-4 0  9997
2 39441 097.6008 208.1676 0083449 108.6701 252.3590 14.74791272248783
Epoch (UTC): 15 July 2018 10:49:51
Eccentricity: 0.0083449
inclination: 97.6008°
perigee height: 587 km
apogee height: 704 km
right ascension of ascending node: 208.1676°
argument of perigee: 108.6701°
revolutions per day: 14.74791272
mean anomaly at epoch: 252.3590°
orbit number at epoch: 24878

The dashed part of the orbit path shows where the satellite is in the earth's shadow,  

DLR